Change the Weather History Date:

Sunday, February 24, 2013

  Actual Average Record
Temperature  
Mean Temperature 36 °F 40 °F  
Max Temperature 50 °F 52 °F 82 °F (1996)
Min Temperature 21 °F 29 °F 10 °F (1964)
Degree Days  
Heating Degree Days 29 25  
Month to date heating degree days 652 665  
Since 1 July heating degree days 3198 3369  
Cooling Degree Days 0 0  
Month to date cooling degree days 0 0  
Year to date cooling degree days 0 0  
Moisture  
Dew Point 25 °F    
Average Humidity 66    
Maximum Humidity 92    
Minimum Humidity 39    
Precipitation  
Precipitation 0.01 in 0.10 in 1.77 in (2011)
Month to date precipitation 2.03 2.43  
Year to date precipitation 5.41 5.15  
Sea Level Pressure  
Sea Level Pressure 30.03 in    
Wind  
Wind Speed 5 mph (ESE)    
Max Wind Speed 23 mph    
Max Gust Speed 75 mph    
Visibility 10 miles    
Events      
T = Trace of Precipitation, MM = Missing Value Source: NWS Daily Summary

Daily Weather History Graph

Daily Weather History Graph

Search for Another Location

Airport or City:

Trip Planner

Search our weather history database for the weather conditions in past years. The results will help you decide how hot, cold, wet, or windy it might be!

Date:

Astronomy

Feb. 24, 2013 Rise Set
Actual Time 6:44 AM CST 5:57 PM CST
Civil Twilight 6:18 AM CST 6:23 PM CST
Nautical Twilight 5:48 AM CST 6:53 PM CST
Astronomical Twilight 5:18 AM CST 7:23 PM CST
Moon 5:08 PM CST (2/24) 5:41 AM CST (2/24)
Length of Visible Light 12h 04m
Length of Day
11h 12m
Waxing Gibbous, 99% of the Moon is Illuminated
Feb 24
Waxing Gibbous
Feb 25
Full
Mar 4
Last Quarter
Mar 11
New
Mar 19
First Quarter

Hourly Weather History & Observations

Time (CST) Temp. Windchill Dew Point Humidity Pressure Visibility Wind Dir Wind Speed Gust Speed Precip Events Conditions
12:53 AM 23.0 °F - 19.9 °F 88% 30.04 in 10.0 mi Calm Calm - N/A   Clear
1:53 AM 24.1 °F - 19.9 °F 84% 30.05 in 8.0 mi Calm Calm - N/A   Clear
2:53 AM 24.1 °F - 19.0 °F 81% 30.04 in 10.0 mi Calm Calm - N/A   Clear
3:53 AM 21.9 °F - 19.0 °F 89% 30.04 in 10.0 mi Calm Calm - N/A   Clear
4:53 AM 21.9 °F - 18.0 °F 85% 30.05 in 10.0 mi Calm Calm - N/A   Clear
5:53 AM 23.0 °F - 19.0 °F 85% 30.06 in 10.0 mi Calm Calm - N/A   Clear
6:53 AM 23.0 °F - 19.0 °F 85% 30.07 in 10.0 mi Calm Calm - N/A   Clear
7:53 AM 28.9 °F - 23.0 °F 78% 30.07 in 10.0 mi Calm Calm - N/A   Clear
8:53 AM 34.0 °F 28.0 °F 26.1 °F 73% 30.10 in 10.0 mi ESE 6.9 mph - N/A   Clear
9:53 AM 37.0 °F 31.6 °F 26.1 °F 65% 30.10 in 10.0 mi ESE 6.9 mph - N/A   Clear
10:53 AM 39.9 °F 33.4 °F 26.1 °F 58% 30.11 in 10.0 mi SSE 10.4 mph - 0.01 in   Clear
11:53 AM 44.1 °F 40.1 °F 28.9 °F 55% 30.09 in 10.0 mi ESE 6.9 mph - N/A   Clear
12:53 PM 45.0 °F 41.8 °F 30.0 °F 56% 30.07 in 10.0 mi SSE 5.8 mph - N/A   Clear
1:53 PM 46.9 °F - 30.9 °F 54% 30.04 in 10.0 mi East 9.2 mph - N/A   Clear
2:53 PM 48.9 °F - 28.9 °F 46% 30.00 in 10.0 mi ESE 10.4 mph - N/A   Clear
3:53 PM 50.0 °F - 27.0 °F 41% 30.00 in 10.0 mi SE 11.5 mph 17.3 mph N/A   Clear
4:53 PM 48.9 °F - 26.1 °F 41% 29.99 in 10.0 mi SE 10.4 mph 16.1 mph N/A   Clear
5:53 PM 46.0 °F 41.4 °F 26.1 °F 46% 29.99 in 10.0 mi ESE 9.2 mph - N/A   Clear
6:53 PM 43.0 °F 37.7 °F 28.0 °F 56% 30.00 in 10.0 mi ESE 9.2 mph - N/A   Clear
7:53 PM 41.0 °F 34.7 °F 28.9 °F 62% 29.99 in 10.0 mi ESE 10.4 mph - N/A   Clear
8:53 PM 39.0 °F 33.4 °F 28.9 °F 67% 29.98 in 10.0 mi East 8.1 mph - N/A   Clear
9:53 PM 37.0 °F 34.5 °F 28.9 °F 73% 29.98 in 10.0 mi East 3.5 mph - N/A   Clear
10:53 PM 36.0 °F 32.1 °F 28.0 °F 73% 29.98 in 10.0 mi East 4.6 mph - N/A   Clear
11:53 PM 36.0 °F 30.3 °F 28.0 °F 73% 29.96 in 10.0 mi ENE 6.9 mph - N/A   Clear